This is the latest recevied weather packets stored in our database for station/object SQ9RHX-13. If no packets are shown the sender has not sent any weather packets the latest 1 day(s).
| Time | Temp. | Humidity | Pressure | Rain* | Wind** | Luminosity | Snow |
|---|---|---|---|---|---|---|---|
| 1778000404 | 22.78° C | 56% | 1008.9 hPa | 0 mm | 1.34 m/s, 333° | 35 W/m² | - |
| 1778000104 | 23.33° C | 55% | 1008.9 hPa | 0 mm | 2.68 m/s, 341° | 38 W/m² | - |
| 1777999803 | 23.89° C | 53% | 1009 hPa | 0 mm | 1.34 m/s, 333° | 48 W/m² | - |
| 1777999502 | 25.56° C | 47% | 1008.8 hPa | 0 mm | 1.34 m/s, 11° | 62 W/m² | - |
| 1777999203 | 25.56° C | 36% | 1008.7 hPa | 0 mm | 0.45 m/s, 353° | 67 W/m² | - |
| 1777998902 | 25.56° C | 36% | 1008.5 hPa | 0 mm | 0.45 m/s, 44° | 78 W/m² | - |
| 1777998604 | 25.56° C | 36% | 1008.6 hPa | 0 mm | 0.45 m/s, 34° | 82 W/m² | - |
| 1777998302 | 25.56° C | 36% | 1008.7 hPa | 0 mm | 1.34 m/s, 39° | 87 W/m² | - |
| 1777998003 | 25.56° C | 37% | 1008.6 hPa | 0 mm | 0 m/s | 78 W/m² | - |
| 1777997705 | 26.11° C | 35% | 1008.7 hPa | 0 mm | 1.34 m/s, 347° | 85 W/m² | - |
| 1777997402 | 26.11° C | 34% | 1008.8 hPa | 0 mm | 0.89 m/s, 66° | 98 W/m² | - |
| 1777997104 | 26.67° C | 33% | 1008.7 hPa | 0 mm | 0.89 m/s, 339° | 107 W/m² | - |
| 1777996802 | 26.67° C | 33% | 1008.8 hPa | 0 mm | 0 m/s | 115 W/m² | - |
| 1777996502 | 27.22° C | 32% | 1008.8 hPa | 0 mm | 0.45 m/s, 40° | 113 W/m² | - |
| 1777996203 | 27.22° C | 32% | 1009 hPa | 0 mm | 0.45 m/s, 15° | 129 W/m² | - |
| 1777995903 | 27.78° C | 33% | 1008.9 hPa | 0 mm | 0 m/s | 153 W/m² | - |
| 1777995603 | 27.78° C | 31% | 1008.9 hPa | 0 mm | 0.45 m/s, 358° | 161 W/m² | - |
| 1777995303 | 28.33° C | 30% | 1008.9 hPa | 0 mm | 0.89 m/s, 65° | 162 W/m² | - |
| 1777995005 | 28.33° C | 30% | 1009.1 hPa | 0 mm | 0 m/s | 169 W/m² | - |
| 1777994703 | 27.78° C | 31% | 1009.1 hPa | 0 mm | 0 m/s | 169 W/m² | - |
| 1777994404 | 27.78° C | 30% | 1009.2 hPa | 0 mm | 0.89 m/s, 50° | 178 W/m² | - |
| 1777994106 | 27.78° C | 32% | 1009.2 hPa | 0 mm | 0.45 m/s, 66° | 189 W/m² | - |
| 1777993804 | 27.78° C | 31% | 1009 hPa | 0 mm | 0 m/s | 213 W/m² | - |
| 1777993503 | 28.33° C | 30% | 1008.9 hPa | 0 mm | 0.45 m/s, 347° | 229 W/m² | - |
| 1777993203 | 28.89° C | 29% | 1009.1 hPa | 0 mm | 0.45 m/s, 22° | 258 W/m² | - |
* Rain latest hour (hover to see other rain measurements)
** Current wind speed in m/s (hover to see current wind gust speed)